This is the latest recevied weather packets stored in our database for station/object WX4SGA. If no packets are shown the sender has not sent any weather packets the latest 10 day(s).
| Time | Temp. | Humidity | Pressure | Rain* | Wind** | Luminosity | Snow |
|---|---|---|---|---|---|---|---|
| 1788108757 | 27.78° C | 90% | 1020.3 hPa | 0 mm | - | 985 W/m² | - |
| 1788108454 | 26.67° C | 93% | 1020.3 hPa | 5.33 mm | - | 1045 W/m² | - |
| 1788108149 | 26.11° C | 94% | 1020.7 hPa | 5.33 mm | - | 296 W/m² | - |
| 1788107846 | 26.67° C | 91% | 1020.7 hPa | 0 mm | - | 135 W/m² | - |
| 1788107542 | 28.33° C | 83% | 1020.7 hPa | 0 mm | - | 143 W/m² | - |
| 1788107236 | 29.44° C | 80% | 1020.7 hPa | 0 mm | - | 145 W/m² | - |
| 1788106932 | 30.56° C | 78% | 1020.7 hPa | 0 mm | - | 200 W/m² | - |
| 1788106627 | 30° C | 78% | 1020.7 hPa | 0 mm | - | 889 W/m² | - |
| 1788106321 | 30° C | 80% | 1020.7 hPa | 0 mm | - | 203 W/m² | - |
| 1788106017 | 29.44° C | 77% | 1020.7 hPa | 0 mm | - | 901 W/m² | - |
| 1788105717 | 29.44° C | 80% | 1020.7 hPa | 0 mm | - | 237 W/m² | - |
| 1788105414 | 30° C | 78% | 1020.7 hPa | 0 mm | - | 908 W/m² | - |
| 1788105109 | 29.44° C | 81% | 1020.7 hPa | 0 mm | - | 839 W/m² | - |
| 1788104804 | 28.89° C | 85% | 1021 hPa | 0 mm | - | 372 W/m² | - |
| 1788104500 | 29.44° C | 83% | 1021 hPa | 0 mm | - | 343 W/m² | - |
| 1788104197 | 28.89° C | 84% | 1021 hPa | 0 mm | - | 787 W/m² | - |
| 1788103896 | 28.89° C | 84% | 1021 hPa | 0 mm | - | 792 W/m² | - |
| 1788103596 | 28.33° C | 86% | 1021 hPa | 0 mm | - | 171 W/m² | - |
| 1788103294 | 28.89° C | 85% | 1021 hPa | 0 mm | - | 685 W/m² | - |
| 1788103000 | 28.89° C | 84% | 1021 hPa | 0 mm | - | 724 W/m² | - |
| 1788102684 | 28.89° C | 86% | 1021 hPa | 0 mm | - | 694 W/m² | - |
| 1788102384 | 27.78° C | 89% | 1021 hPa | 0 mm | - | 502 W/m² | - |
| 1788102079 | 28.33° C | 88% | 1021 hPa | 0 mm | - | 334 W/m² | - |
| 1788101773 | 27.78° C | 89% | 1021 hPa | 0 mm | - | 659 W/m² | - |
| 1788101468 | 27.22° C | 92% | 1021 hPa | 0 mm | - | 721 W/m² | - |
* Rain latest hour (hover to see other rain measurements)
** Current wind speed in m/s (hover to see current wind gust speed)